Location: Bolobang
(6.5000°N, 10.8500°W)
Time: 17:16:44
(UTC+00:00)

Daily predictions for brighter satellites

Satellite Brightness Start Highest point End
(mag) Time Altitude Azimuth Time Altitude Azimuth Time Altitude Azimuth
GEOS 3 Rocket 3.5 19:18:08 10° NNE 19:23:12 77° ESE 19:28:15 10° SSW
NOSS 3-2 (C) 4.4 19:15:03 10° NNW 19:23:42 83° ENE 19:32:32 10° SSE
Meteor 1-27 4.3 19:20:47 10° N 19:26:37 79° E 19:32:26 10° S
Okean O Rocket 2.1 19:23:37 10° S 19:27:58 64° WSW 19:32:20 10° NNW
DMSP B5D2-2 4.1 19:24:44 10° NNE 19:29:57 80° ESE 19:35:13 10° S
CZ-4B R/B 3.9 19:25:03 10° S 19:30:26 57° WSW 19:35:42 10° NNW
Ariane H10 3.7 19:28:38 10° SW 19:30:59 18° S 19:33:53 10° SE
CZ-4 R/B 4.4 19:30:30 10° S 19:34:36 89° WSW 19:38:43 10° NNW
Cosmos 1634 Rocket 4.1 19:30:00 10° N 19:35:59 52° E 19:41:56 10° SSE
Cosmos 1437 Rocket 2.8 19:33:49 10° N 19:37:49 63° E 19:41:51 10° SSE
USA 32 4.3 19:35:07 10° NNE 19:40:07 47° E 19:45:08 10° SSE
IUS-13 SRM-1 4.1 19:39:35 10° WNW 19:43:46 79° NNE 20:00:27 16° ESE
Cosmos 1869 3.5 19:41:41 10° N 19:45:30 73° W 19:49:23 10° S
ARGOS 3.1 19:40:12 10° SSE 19:45:36 74° ENE 19:51:00 10° N
CZ-4 R/B 1.5 19:41:33 10° SSE 19:45:40 62° ENE 19:49:48 10° N
Cosmos 1980 Rocket 3.6 19:43:48 10° NNE 19:47:38 19° ENE 19:49:31 16° E
Cosmos 923 Rocket 4.0 19:42:41 10° S 19:47:58 74° ESE 19:53:16 10° NNE
Cosmos 1437 2.7 19:47:14 10° NNE 19:49:48 40° E 19:51:17 20° SE
Cosmos 2221 3.7 19:47:02 10° NNE 19:50:32 24° E 19:52:08 19° ESE
ARIANE 5 DEB (SYLDA) 3.5 19:47:50 10° WSW 19:51:07 50° S 19:52:23 24° ESE
Cosmos 1689 Rocket 2.3 19:49:42 10° NNE 19:52:16 38° E 19:54:47 10° S
HJ-1C 3.4 19:51:09 12° SSE 19:54:02 53° E 19:57:13 10° N
Palapa B4 Rocket 4.2 19:48:35 10° WSW 19:58:00 85° NNW 20:02:55 14° ENE
YAOGAN 1 2.5 19:54:43 10° SSE 19:59:03 87° ENE 20:03:21 10° N
GENESIS II 4.1 19:59:48 10° NNW 20:03:41 85° ENE 20:06:06 22° SSE
Cosmos 2369 4.0 19:59:47 10° N 20:05:08 44° ENE 20:08:07 24° SE
ARIANE 3 DEB 3.8 20:02:10 10° WSW 20:05:45 24° SSW 20:06:34 21° S
Cosmos 1092 Rocket 4.4 20:03:45 10° SSE 20:09:27 38° E 20:15:10 10° NNE
Cosmos 1076 Rocket 4.0 20:06:48 10° SSW 20:11:04 62° W 20:15:21 10° N
Centaur D AC-29 3.5 19:46:12 10° WNW 20:11:34 38° N 20:15:45 17° ENE
Ariane V96 H10-3 3.1 20:07:23 10° WSW 20:13:01 39° S 20:13:27 37° SSE
SL-08 RB Rocket 4.0 20:08:27 10° S 20:13:05 71° W 20:17:43 10° NNW
Centaur AC-119 3.6 20:09:27 10° SW 20:13:12 60° SE 20:27:15 10° ENE
Hubble Space Telescope 2.2 20:11:34 10° NNW 20:15:00 25° NNE 20:15:57 23° NE
ARIANE 5 R/B 3.4 19:53:40 10° W 20:15:12 70° S 20:17:04 35° ESE
Cosmos 2279 Rocket 3.9 20:10:27 10° N 20:16:37 75° E 20:22:50 10° S
Ariane H10+ 3.0 20:12:07 10° WSW 20:17:00 74° S 20:25:51 23° E
Cosmos 1680 Rocket 3.9 20:15:10 10° SSW 20:20:25 67° WNW 20:25:39 10° N
Cosmos 2112 Rocket 4.1 20:16:56 10° SSW 20:22:15 79° WNW 20:27:32 10° N
Nadezhda 4 Rocket 4.1 20:16:09 10° S 20:22:17 78° W 20:28:28 10° N
Lacrosse 5 1.8 20:17:38 10° SSW 20:22:37 57° ESE 20:26:15 18° NE
ERBS 2.6 20:20:04 10° NW 20:23:12 54° WSW 20:23:34 50° SSW
GPS 2-17 Rocket1 3.2 20:19:40 10° WSW 20:24:16 69° NNW 20:26:09 35° NE
SL-8 R/B 3.7 20:20:57 10° SW 20:25:43 79° NW 20:30:07 12° NE
Okean-O 3.5 20:34:29 17° S 20:37:38 47° WSW 20:41:53 10° NNW
Cosmos 1428 Rocket 4.4 20:36:08 38° SSE 20:38:18 59° E 20:44:18 10° NNE
Cosmos 1697 Rocket 3.6 20:34:25 10° NNW 20:39:47 47° WSW 20:43:58 16° S
COSMOS 2455 2.7 20:34:19 10° SSW 20:40:18 85° ESE 20:46:19 10° NNE
Cosmos 1627 Rocket 4.4 20:39:55 28° S 20:43:28 70° E 20:49:44 10° N
Meteor 2-3 Rocket 4.0 20:39:40 10° SSW 20:45:13 65° W 20:50:51 10° N
OAO 2 Rocket 3.3 20:47:44 10° NW 20:52:30 76° W 20:52:30 76° W
MetOp-A 4.5 20:53:39 43° SSW 20:55:16 63° WSW 21:00:33 10° NNW
ARIANE 5 R/B 3.2 20:45:47 10° W 20:59:22 85° N 20:59:34 82° ENE
ATLAS 3B R/B 3.0 20:53:36 10° N 21:00:42 56° ENE 21:00:42 56° ENE
CZ-3C R/B 3.7 20:57:47 10° W 21:04:39 17° SW 21:06:18 15° SSW
Cosmos 2278 4.2 21:11:45 10° NNW 21:16:35 56° WNW 21:16:35 56° WNW
Cosmos 1980 Rocket 3.7 21:26:28 10° NW 21:31:20 31° WSW 21:31:20 31° WSW
